When you browse on this site, cookies collect data to enhance your experience and personalize the content and advertising you see.
Visit our Privacy Policy to learn more. By continuing to use the site, you agree to this use of cookies and data.
  • In Latvia
  • List of Countries
  • For 7 days
  • Water Temperature
  • Satellite Maps
  • Weather Map
  • Weather Widgets
  • user-avatar
    Login

    Hourly Weather Kostindor

    Today, 23 May, Thursday

    Time Temperature Precipitation Wind Pressure Humidity
    00:00 +9°C° 0 mm 0 mps 742 mmHg 96%
    01:00 +9°C° 0 mm 0 mps 742 mmHg 96%
    02:00 +9°C° 0 mm 0 mps 741 mmHg 96%
    03:00 +9°C° 0 mm 0 mps 741 mmHg 95%
    04:00 +10°C° 0 mm 0 mps 741 mmHg 93%
    05:00 +11°C° 0 mm 0 mps 740 mmHg 92%
    06:00 +12°C° 0 mm 0 mps 740 mmHg 85%
    07:00 +15°C° 0 mm 1 mps 741 mmHg 78%
    08:00 +16°C° 0 mm 1 mps 741 mmHg 71%
    09:00 +16°C° 0 mm 2 mps 741 mmHg 73%
    10:00 +16°C° 0 mm 2 mps 741 mmHg 75%
    11:00 +16°C° 0 mm 2 mps 741 mmHg 77%
    12:00 +13°C° 0 mm 3 mps 741 mmHg 80%
    13:00 +12°C° 0 mm 4 mps 741 mmHg 82%
    14:00 +10°C° 0 mm 4 mps 742 mmHg 85%
    15:00 +10°C° 0 mm 4 mps 742 mmHg 81%
    16:00 +10°C° 0 mm 4 mps 742 mmHg 78%
    17:00 +10°C° 0 mm 4 mps 743 mmHg 74%
    18:00 +9°C° 0 mm 3 mps 743 mmHg 77%
    19:00 +8°C° 0 mm 2 mps 744 mmHg 80%
    20:00 +8°C° 0 mm 2 mps 744 mmHg 83%
    21:00 +7°C° 0 mm 2 mps 744 mmHg 84%
    22:00 +6°C° 0 mm 2 mps 745 mmHg 86%
    23:00 +5°C° 0 mm 2 mps 745 mmHg 87%

    Tomorrow, 24 May, Friday

    Time Temperature Precipitation Wind Pressure Humidity
    00:00 +5°C° 0 mm 2 mps 746 mmHg 83%
    01:00 +4°C° 0 mm 2 mps 746 mmHg 79%
    02:00 +3°C° 0 mm 2 mps 747 mmHg 75%
    03:00 +4°C° 0 mm 2 mps 747 mmHg 70%
    04:00 +4°C° 0 mm 2 mps 747 mmHg 65%
    05:00 +4°C° 0 mm 3 mps 748 mmHg 60%
    06:00 +7°C° 0 mm 3 mps 748 mmHg 54%
    07:00 +8°C° 0 mm 3 mps 748 mmHg 48%
    08:00 +10°C° 0 mm 3 mps 748 mmHg 42%
    09:00 +11°C° 0 mm 3 mps 748 mmHg 40%
    10:00 +11°C° 0 mm 3 mps 748 mmHg 37%
    11:00 +12°C° 0 mm 3 mps 748 mmHg 34%
    12:00 +13°C° 0 mm 3 mps 748 mmHg 33%
    13:00 +13°C° 0 mm 3 mps 748 mmHg 33%
    14:00 +14°C° 0 mm 3 mps 747 mmHg 32%
    15:00 +13°C° 0 mm 3 mps 747 mmHg 33%
    16:00 +14°C° 0 mm 2 mps 747 mmHg 35%
    17:00 +14°C° 0 mm 2 mps 747 mmHg 36%
    18:00 +12°C° 0 mm 2 mps 747 mmHg 42%
    19:00 +10°C° 0 mm 2 mps 747 mmHg 48%
    20:00 +8°C° 0 mm 2 mps 747 mmHg 53%
    21:00 +7°C° 0 mm 2 mps 747 mmHg 58%
    22:00 +7°C° 0 mm 2 mps 747 mmHg 62%
    23:00 +7°C° 0 mm 2 mps 747 mmHg 66%

    Day after tomorrow, 25 May, Saturday

    Time Temperature Precipitation Wind Pressure Humidity
    00:00 +7°C° 0 mm 3 mps 747 mmHg 67%
    01:00 +7°C° 0 mm 3 mps 746 mmHg 68%
    02:00 +7°C° 0 mm 3 mps 746 mmHg 70%
    03:00 +7°C° 0 mm 3 mps 746 mmHg 69%
    04:00 +8°C° 0 mm 3 mps 746 mmHg 68%
    05:00 +8°C° 0 mm 3 mps 745 mmHg 67%
    06:00 +10°C° 0 mm 4 mps 745 mmHg 67%
    07:00 +11°C° 0 mm 4 mps 745 mmHg 67%
    08:00 +12°C° 0 mm 4 mps 745 mmHg 68%
    09:00 +12°C° 0.1 mm 4 mps 744 mmHg 72%
    10:00 +11°C° 0.1 mm 4 mps 744 mmHg 76%
    11:00 +11°C° 0.1 mm 4 mps 743 mmHg 81%
    12:00 +11°C° 0.4 mm 3 mps 743 mmHg 83%
    13:00 +11°C° 0.4 mm 3 mps 742 mmHg 85%
    14:00 +12°C° 0.4 mm 2 mps 742 mmHg 87%
    15:00 +13°C° 0.7 mm 2 mps 741 mmHg 89%
    16:00 +13°C° 0.7 mm 2 mps 740 mmHg 91%
    17:00 +13°C° 0.7 mm 2 mps 740 mmHg 92%
    18:00 +13°C° 0.2 mm 3 mps 739 mmHg 93%
    19:00 +13°C° 0.2 mm 3 mps 739 mmHg 93%
    20:00 +14°C° 0.2 mm 3 mps 738 mmHg 93%
    21:00 +14°C° 0.3 mm 4 mps 738 mmHg 94%
    22:00 +14°C° 0.3 mm 4 mps 737 mmHg 95%
    23:00 +14°C° 0.3 mm 4 mps 737 mmHg 96%

    26 May, Sunday

    Time Temperature Precipitation Wind Pressure Humidity
    00:00 +14°C° 0.9 mm 4 mps 736 mmHg 96%
    01:00 +14°C° 0.9 mm 4 mps 736 mmHg 97%
    02:00 +14°C° 0.9 mm 3 mps 736 mmHg 97%
    03:00 +13°C° 0 mm 3 mps 736 mmHg 96%
    04:00 +13°C° 0 mm 3 mps 736 mmHg 96%
    05:00 +12°C° 0 mm 3 mps 736 mmHg 95%
    06:00 +13°C° 0 mm 3 mps 736 mmHg 88%
    07:00 +14°C° 0 mm 3 mps 736 mmHg 80%
    08:00 +14°C° 0 mm 3 mps 737 mmHg 73%
    09:00 +17°C° 0 mm 3 mps 737 mmHg 64%
    10:00 +18°C° 0 mm 3 mps 737 mmHg 55%
    11:00 +19°C° 0 mm 3 mps 737 mmHg 47%
    12:00 +19°C° 0 mm 3 mps 737 mmHg 46%
    13:00 +20°C° 0 mm 3 mps 737 mmHg 45%
    14:00 +20°C° 0 mm 3 mps 737 mmHg 44%
    15:00 +19°C° 0 mm 3 mps 737 mmHg 49%
    16:00 +18°C° 0 mm 3 mps 737 mmHg 53%
    17:00 +17°C° 0 mm 3 mps 737 mmHg 58%
    18:00 +16°C° 0 mm 3 mps 737 mmHg 65%
    19:00 +14°C° 0 mm 2 mps 737 mmHg 72%
    20:00 +12°C° 0 mm 2 mps 737 mmHg 80%
    21:00 +11°C° 0 mm 1 mps 737 mmHg 84%
    22:00 +10°C° 0 mm 1 mps 737 mmHg 88%
    23:00 +8°C° 0 mm 0 mps 737 mmHg 92%

    27 May, Monday

    Time Temperature Precipitation Wind Pressure Humidity
    00:00 +7°C° 0 mm 0 mps 737 mmHg 92%
    01:00 +8°C° 0 mm 1 mps 737 mmHg 93%
    02:00 +8°C° 0 mm 1 mps 736 mmHg 93%
    03:00 +9°C° 0 mm 1 mps 736 mmHg 90%
    04:00 +10°C° 0 mm 1 mps 736 mmHg 87%
    05:00 +11°C° 0 mm 1 mps 736 mmHg 83%
    06:00 +12°C° 0.1 mm 1 mps 736 mmHg 80%
    07:00 +13°C° 0.1 mm 1 mps 736 mmHg 77%
    08:00 +14°C° 0.1 mm 1 mps 735 mmHg 74%
    09:00 +14°C° 0.6 mm 1 mps 736 mmHg 78%
    10:00 +13°C° 0.6 mm 1 mps 736 mmHg 81%
    11:00 +12°C° 0.6 mm 0 mps 736 mmHg 85%
    12:00 +14°C° 0.6 mm 1 mps 736 mmHg 84%
    13:00 +14°C° 0.6 mm 1 mps 737 mmHg 84%
    14:00 +14°C° 0.6 mm 1 mps 737 mmHg 84%
    15:00 +14°C° 0.2 mm 1 mps 738 mmHg 84%
    16:00 +14°C° 0.2 mm 2 mps 738 mmHg 84%
    17:00 +14°C° 0.2 mm 2 mps 738 mmHg 84%
    18:00 +13°C° 0 mm 2 mps 739 mmHg 87%
    19:00 +12°C° 0 mm 2 mps 740 mmHg 90%
    20:00 +12°C° 0 mm 2 mps 740 mmHg 93%
    21:00 +10°C° 0 mm 3 mps 741 mmHg 94%
    22:00 +10°C° 0 mm 3 mps 741 mmHg 94%
    23:00 +10°C° 0 mm 3 mps 742 mmHg 95%

    28 May, Tuesday

    Time Temperature Precipitation Wind Pressure Humidity
    00:00 +9°C° 0 mm 3 mps 742 mmHg 95%
    01:00 +8°C° 0 mm 3 mps 743 mmHg 95%
    02:00 +8°C° 0 mm 2 mps 743 mmHg 95%
    03:00 +8°C° 0 mm 2 mps 744 mmHg 93%
    04:00 +9°C° 0 mm 2 mps 744 mmHg 90%
    05:00 +10°C° 0 mm 2 mps 744 mmHg 87%
    06:00 +12°C° 0 mm 2 mps 745 mmHg 81%
    07:00 +14°C° 0 mm 2 mps 745 mmHg 74%
    08:00 +16°C° 0 mm 2 mps 745 mmHg 67%
    09:00 +17°C° 0.1 mm 3 mps 745 mmHg 63%
    10:00 +18°C° 0.1 mm 3 mps 745 mmHg 60%
    11:00 +19°C° 0.1 mm 3 mps 746 mmHg 57%
    12:00 +19°C° 0.4 mm 3 mps 746 mmHg 60%
    13:00 +19°C° 0.4 mm 4 mps 746 mmHg 62%
    14:00 +19°C° 0.4 mm 4 mps 746 mmHg 65%
    15:00 +19°C° 0.3 mm 4 mps 746 mmHg 67%
    16:00 +18°C° 0.3 mm 3 mps 746 mmHg 69%
    17:00 +18°C° 0.3 mm 3 mps 746 mmHg 71%
    18:00 +17°C° 0.1 mm 3 mps 746 mmHg 76%
    19:00 +15°C° 0.1 mm 2 mps 747 mmHg 82%
    20:00 +14°C° 0.1 mm 2 mps 747 mmHg 88%
    21:00 +13°C° 0 mm 2 mps 747 mmHg 89%
    22:00 +12°C° 0 mm 2 mps 747 mmHg 90%
    23:00 +11°C° 0 mm 1 mps 747 mmHg 91%
    Show more